Voltar ao catálogo

OAO 1

AtivoCiênciaLEO
NORAD 2142·PAYLOAD·🇺🇸 United States

Lançado Apr 8, 1966 de Cape Canaveral Space Force Station

Loading…

Próximas Passagens (próximas 24 horas)

TLE

AtualizadoSource: Space-Track

Época: Sep 14, 2026, 02:57 UTC

1 02142U 66031A   26257.12336305  .00000032  00000-0  17809-4 0  9994
2 02142  35.0448 204.0524 0007468 272.7062  87.2770 14.34708861163860

Acompanhe OAO 1 em tempo real com AllMySat

Download on the App Store